Regional Weather Roundup
Issued by NWS

Home | Current Version | Previous Version | Text Only | Print | Product List | Glossary On
Versions: 1 2 3 4 5 6 7 8 9 10 11 12 13 14 15 16 17 18 19 20 21 22 23 24 25 26 27 28 29 30 31 32 33 34 35 36 37 38 39 40 41 42 43 44 45 46 47 48 49 50
000
ASHW40 PHFO 082144
RWRHI

WEATHER ROUNDUP FOR HAWAII
NATIONAL WEATHER SERVICE HONOLULU HI
1100 AM HST MON MAR 08 2021

THIS IS AN AUTOMATED REPORT THAT HAS NOT BEEN QUALITY CONTROLLED.

NOTE..."FAIR" INDICATES FEW OR NO CLOUDS BELOW 12,000 FEET WITH NO
SIGNIFICANT WEATHER AND/OR OBSTRUCTIONS TO VISIBILITY.

* - THESE SITES REPORT LIMITED FIELDS
# - BUOY DATA PROVIDED BY PACIFIC ISLANDS OCEAN OBSERVING SYSTEM.

HIZ001>004-082200-
KAUAI-NIIHAU-

CITY           SKY/WX    TMP DP  RH WIND       PRES   REMARKS
LIHUE APT      CLOUDY    75  67  76 NE18G29   30.15S
PORT ALLEN*      N/A     77 N/A N/A E21G30      N/A
POIPU*         NOT AVBL
PRINCEVILLE*     N/A     73 N/A N/A E13G25      N/A
KOKOLE POINT*  NOT AVBL
MOLOAA DAIRY*    N/A     75  66  73 E8G18       N/A
WAIMEA HTS*      N/A     79  66  65 E8G20       N/A
PUU OPAE*        N/A    N/A N/A N/A S6G12       N/A
PUU LUA*       NOT AVBL
MAKAHA RIDGE*    N/A     66  63  88 CALM        N/A
$$

HIZ005>011-082200-
OAHU-

CITY           SKY/WX    TMP DP  RH WIND       PRES   REMARKS
HONOLULU       LGT RAIN  77  67  71 E16       30.13R
KALAELOA       PTSUNNY   79  65  62 E13G20    30.13R
KANEOHE MCB    PTSUNNY   75  66  73 E13G20    30.11S
WHEELER FIELD  CLOUDY    72  68  88 SE8G17    30.15S
BELLOWS*         N/A     75 N/A N/A NE17        N/A
KAHUKU*          N/A     75 N/A N/A NE12G22     N/A
WHEELER*         N/A     73 N/A N/A SE9G21      N/A
WAIANAE HARBOR   N/A     77 N/A N/A E13G20      N/A
DILLINGHAM*      N/A     73  72  94 NE6G16      N/A
KAHUKU TRN*      N/A     73  68  83 E12G26      N/A
KAWAILOA*      NOT AVBL
KII*             N/A     75  68  78 E22G35      N/A
MAKUA RANGE*     N/A     79  68  69 E13G26      N/A
OAHU FOREST NW NOT AVBL
SCHOFIELD BRK*   N/A     70  66  88 E7          N/A
SCHOFIELD S*   NOT AVBL
WAIANAE VLY*     N/A     73  63  68 NE6G20      N/A
KUAOKALA*        N/A     70  64  83 CALM        N/A
HONOULIUULI*   NOT AVBL
MOKUOLOE IS*     N/A     75 N/A N/A E14         N/A
PALEHUA*       NOT AVBL
WAIAWA PHB*    NOT AVBL
$$

HIZ012>013-082200-
MOLOKAI-

CITY           SKY/WX    TMP DP  RH WIND       PRES   REMARKS
MOLOKAI AIRPT  PTSUNNY   77  60  55 VRB6      30.11F
KALAUPAPA      NOT AVBL
MAKAPULAPAI*     N/A     75  66  73 E26G39      N/A
MOLOKAI 1*       N/A     64 N/A N/A E7          N/A
PUU ALII*        N/A     57  56  97 NE3G17      N/A
$$

HIZ016-082200-
KAHOOLAWE-

CITY           SKY/WX    TMP DP  RH WIND       PRES   REMARKS
KAHOOLAWE*     NOT AVBL
HAKIOAWA*      NOT AVBL
HONOKANAIA*    NOT AVBL
KANELOA*         N/A     73  64  73 E23G43    30.15S
KEALIALALO*    NOT AVBL
LUA MAKIKA*    NOT AVBL
$$

HIZ014>015-082200-
LANAI-

CITY           SKY/WX    TMP DP  RH WIND       PRES   REMARKS
LANAI CITY     FAIR      72  70  93 NE13      30.16S
LANAI 1*       NOT AVBL
$$

HIZ017>028-082200-
MAUI-

CITY           SKY/WX    TMP DP  RH WIND       PRES   REMARKS
KAHULUI        LGT RAIN  73  68  84 NE20G26   30.11S
KAPALUA-W MAUI DRIZZLE   73  64  73 E18G32    30.11S
HANA AIRPORT   PTSUNNY   75  72  88 N14       30.15F
HANA*            N/A     73 N/A N/A E17G26      N/A
HALEAKALA SUMM   N/A     39  39 100 E24         N/A  VSB 0   WCI  28
MAALAEA BAY*     N/A     77 N/A N/A N24G33      N/A
HALEAKALA*     NOT AVBL
KAUPO GAP*     NOT AVBL
KULA 1*          N/A     59  50  72 W5G16       N/A
$$

HIZ023>026-082200-
BIG ISLAND OF HAWAII COAST AND LOWER SLOPES-

CITY           SKY/WX    TMP DP  RH WIND       PRES   REMARKS
KAILUA KONA    CLOUDY    79  66  64 W6        30.08S
HILO           CLOUDY    75  68  78 SE12      30.14F
HONOKAA*       NOT AVBL
KAWAIHAE MWT*  NOT AVBL
KAWAIHAE*        N/A     75 N/A N/A SW3         N/A
SOUTH POINT*     N/A     70 N/A N/A E22G30      N/A
UPOLU AIRPORT*   N/A     75 N/A N/A NE24G36     N/A
KAMUELA*       NOT AVBL
HAKALAU*         N/A     51  48  88 S7G18       N/A
KALOKO-HONOKO*   N/A     81  66  61 W9        30.07F
PALI 2*          N/A     66  59  77 NE6G12      N/A
KEALAKOMO*       N/A     75  66  73 NE12        N/A
KAUPULEHU*       N/A     73  64  73 VRB5G12     N/A
KAPAPALA*        N/A     68  65  90 E3G9        N/A
LOWER KAHUKU*    N/A     61  59  94 VRB3G13     N/A
PUHE CS*         N/A     77  64  65 SW2         N/A
PUHO CS*         N/A     76  65  68 NW3G12      N/A
PTA KEAMUKU*   NOT AVBL
WAIKOLOA*        N/A     75  61  60 SW3         N/A
$$

HIZ027>028-082200-
BIG ISLAND OF HAWAII INTERIOR AND SUMMMITS-

CITY           SKY/WX    TMP DP  RH WIND       PRES   REMARKS
BRADSHAW FIELD CLOUDY    60  44  57 E21G29    30.38S
MK VISITOR CEN   N/A     41  37  87 SE7         N/A
MAUNA KEA*       N/A     30  30 100 E9          N/A  WCI  22
MAUNA LOA*     NOT AVBL
MAUNA LOA 1*   NOT AVBL
PTA KIPUKA*      N/A     64  48  55 E9G18       N/A
PTA RANGE 17*    N/A     61  41  48 E17G30      N/A
PTA WEST*        N/A     63  55  77 N6G26       N/A
NENE CABIN*      N/A     48  48 100 E10G18      N/A
AHUMOA*          N/A     57  51  80 NE6G13      N/A
PTA PORTABLE*  NOT AVBL
PUU MALI*        N/A     57  46  67 N9          N/A
$$

HIC003-082200-
NORTHWEST ISLANDS-

CITY           SKY/WX    TMP DP  RH WIND       PRES   REMARKS
MIDWAY ISLAND  SUNNY     72  68  88 SE8       30.21R FOG
MIDWAY NOS*      N/A     72 N/A N/A MISG      30.20R
FRENCH FRIGATE NOT AVBL
$$

PHZ110>124-180-082200-
BUOY REPORTS

STATION/POSITION TIME  TEMP    WIND        PRES    WAVE   SWELL
                       AIR SEA DIR/SP/G            HT/PER HT/DIR
                 (UTC) (F)     (DEG/KT/KT) (MB)    (FT/S) (FT/D)
BUOY 51101       2120   69 74   90/ 14/ 21 1022.6
BUOY 51100       NOT AVBL
BUOY 51002       2120   76 76  110/ 23/ 27 1016.0
BUOY 51003       2040      77                N/A     8/ 8
BUOY 51004       2120   75 75   70/ 16/ 21 1018.4
WAIMEA BAY#      NOT AVBL
MOKAPU POINT#    2056      76                N/A     9/ 8   3/ 20
LANAI#           2126      76                N/A     3/15   2/270
BARBERS PT#      2056      76                N/A     3/15   2/280
PAUWELA#         2126      76                N/A     9/ 8   3
HILO#            2113      75                N/A     8/ 8   3/340
KANEOHE BAY#     2126      76                N/A     9/ 8   3/350
KANEOHE BAY 2#   NOT AVBL
HANALEI#         NOT AVBL
KAHULUI HARBOR   2100   73 74   90/ 11/ 15 1020.3
HONOLULU HARBOR  2100   74 76   80/  4/ 10 1020.6
PEARL HARBOR#    2100      76                N/A     3/ 6   2/160
KILO NALU        NOT AVBL
HILO HARBOR      2100   72 77  190/  3/  8 1019.5
MOKUOLOE         2036   74 74   90/ 11/ 19 1020.7F
NAWILIWILI       2100   74 78   70/ 16/ 20 1020.8
WHOTS BUOY       NOT AVBL
BUOY 51028       NOT AVBL
$$

......................KEY........................................
  SKY/WX - SKY CONDITIONS/PRESENT WEATHER
  TMP    - TEMPERATURE IN FAHRENHEIT
  DWPT   - DEWPOINT IN FAHRENHEIT
  RH     - RELATIVE HUMIDITY IN PERCENT
  WIND   - DIRECTION AND SPEED /MPH FOR ISLANDS...KTS FOR BUOYS/
  PRES   - MEAN SEA LEVEL PRESSURE IN INCHES OF HG
  VSB    - VISIBILITY IN MILES
  HX     - HEAT INDEX
  WCI    - WIND CHILL INDEX
  VRB    - VARIABLE WIND DIRECTION
  N/A    - NOT AVAILABLE




USA.gov is the U.S. government's official web portal to all federal, state and local government web resources and services.